This demonstration page uses our WeatherBlox Daily Observations layout. Learn more.

Left ArrowRight Arrow

41.86663, -103.66717

Hourly Observations for February 10, 2015

Temp ( °F °C ) Dew Point ( °F °C ) Humidity (%) Winds ( mph kmh ) Pressure ( in mb ) Visibility ( mi km ) Precip ( " mm )
12:53 am 00:53 Clear 47 8.3 30 -1.1 52 52 W 15 24 29.81 1010 10 16.0934 N/A
1:53 am 01:53 Clear 47 8.3 31 -0.6 54 54 W 16 26 29.82 1010 10 16.0934 N/A
2:53 am 02:53 Clear 45 7.2 32 undefined 61 61 NW 9 15 29.82 1010 10 16.0934 N/A
3:53 am 03:53 Clear 40 4.4 31 -0.6 70 70 NW 7 11 29.85 1011 10 16.0934 N/A
4:53 am 04:53 Clear 38 3.3 30 -1.1 73 73 NW 8 13 29.86 1011 10 16.0934 N/A
5:53 am 05:53 Clear 36 2.2 30 -1.1 79 79 WNW 8 13 29.91 1013 10 16.0934 N/A
6:53 am 06:53 Clear 38 3.3 30 -1.1 73 73 WNW 10 17 29.94 1014 10 16.0934 N/A
7:53 am 07:53 Sunny 37 2.8 30 -1.1 76 76 WNW 7 11 29.95 1014 10 16.0934 N/A
8:53 am 08:53 Sunny 45 7.2 33 0.6 63 63 WNW 8 13 29.97 1015 10 16.0934 N/A
9:53 am 09:53 Sunny 51 10.6 32 undefined 48 48 WNW 12 19 29.99 1016 10 16.0934 N/A
10:53 am 10:53 Sunny 55 12.8 34 1.1 45 45 NNW 14 22 29.98 1015 10 16.0934 N/A
11:53 am 11:53 Sunny 58 14.4 32 undefined 38 38 NW 16 26 29.96 1015 10 16.0934 N/A
12:53 pm 12:53 Mostly Sunny 59 15 28 -2.2 31 31 WNW 15 24 29.94 1014 10 16.0934 N/A
1:53 pm 13:53 Mostly Cloudy 60 15.6 31 -0.6 33 33 N 18 30 29.93 1014 10 16.0934 N/A
2:00 pm 14:00 Mostly Cloudy 61 16 32 undefined 34 34 N 15 24 29.83 1010 10 16.0934 N/A
2:53 pm 14:53 Cloudy 56 13.3 31 -0.6 39 39 NNW 10 17 29.96 1014 10 16.0934 N/A
3:53 pm 15:53 Cloudy 54 12.2 32 undefined 43 43 N 20 31 30.01 1016 10 16.0934 N/A
4:53 pm 16:53 Mostly Cloudy 50 10 33 0.6 52 52 NNW 10 17 30.05 1018 10 16.0934 N/A
5:53 pm 17:53 Mostly Clear 46 7.8 34 1.1 63 63 NW 6 9 30.11 1020 10 16.0934 N/A
6:53 pm 18:53 Mostly Cloudy 47 8.3 33 0.6 59 59 NNW 9 15 30.14 1021 10 16.0934 N/A
7:53 pm 19:53 Cloudy 44 6.7 34 1.1 68 68 N 17 28 30.19 1022 10 16.0934 N/A
8:53 pm 20:53 Cloudy 42 5.6 34 1.1 73 73 N 15 24 30.22 1023 10 16.0934 N/A
9:53 pm 21:53 Cloudy 40 4.4 32 undefined 73 73 WNW 7 11 30.23 1024 10 16.0934 N/A
10:53 pm 22:53 Clear 37 2.8 30 -1.1 76 76 NW 15 24 30.26 1025 10 16.0934 N/A
11:53 pm 23:53 Clear 33 0.6 28 -2.2 82 82 NNW 14 22 30.27 1025 10 16.0934 N/A

Powered by AerisWeather